Location: La Comballaz
(46.3780°N, 7.0817°E)
Time: 05:38:33
(UTC+00:00)

X-37B - Pass Details

Date: 14 December 2021
Orbit: 334 x 337 km, 45.0° (Epoch: 11 January)

Event Time Altitude Azimuth Distance (km) Brightness Sun altitude
Rises 16:24:41 0° 262° (W) 2,104 5.9 -6.7°
Reaches altitude 10° 16:26:41 10° 260° (W) 1,267 4.7 -7.0°
Maximum altitude 16:29:30 66° 177° (S) 367 0.6 -7.4°
Drops below altitude 10° 16:32:19 10° 94° (E) 1,267 2.7 -7.9°
Enters shadow 16:32:34 - 93° (E) 1,368 2.8 -7.9°
